Follow iAlert.com on twitter @ialertcom
Search For Active Alerts in Your Area  
  Hi Guest:  [ Sign-up / Services ] [ Login ]

Current weather by "City, St" or "zip code"  
 

Advertise Here

Current Conditions: Waco, Waco Regional Airport, TX

Overcast


59.0 F

Last Updated on Oct 19 2018, 1:51 am CDT
Humidity: 90%
Wind Speed: N 4.6 mph
Barometer 30.23 in
Dewpoint: 55.9 F
Visibility: 10.00 mi
Precip: --
Heat Index: NA
Wind Chill: 59 F
Current conditions at:

Waco, Waco Regional Airport, TX (KACT)

Lat: 31.61 Lon: 97.227

Local Radar Image active severe weather and emergency alerts image image weather storm and storm spotter reports image weather observation monitoring service image
Local
Radar
Active
Alerts
Storm Reports Obs
Monitoring

iAlert Weather and Emergency Alert Notification Services:


ialert severe weather and emergency alerts by text message and email ialert daily weather forecast by email and text message service ialert real-time weather-observation monitoring and alert notification service ialert storm report monitoring alert notification

Observation History for Waco, Waco Regional Airport, TX


Time Wind
(mph)
Vis
(mi)
Weather Precip (in) Temperature (F) Relative
Humidity
Wind
Chill
(°F)
Heat
Index
(°F)
Pressure
Air Dwpt altimeter
(in)
sea level
(mb)
1:51 am CDT N 4.6 10.00 Overcast -- 59.0 55.9 90% 59 NA 30.23 1023.2
12:51 am CDT N 4.6 10.00 Overcast -- 59.0 55.9 90% 59 NA 30.24 1023.8
11:51 pm CDT N 3.5 10.00 Overcast -- 59.0 55.9 90% NA NA 30.26 1024.4
10:51 pm CDT N 0.0 10.00 Overcast -- 59.0 55.9 90% NA NA 30.27 1024.8
9:51 pm CDT N 5.8 10.00 Overcast -- 59.0 55.0 87% 58 NA 30.28 1025.1
8:51 pm CDT NE 5.8 9.00 Light Rain 00.01 59.0 55.9 90% 58 NA 30.29 1025.3
7:51 pm CDT NE 5.8 10.00 Overcast -- 61.0 54.0 78% 61 NA 30.27 1024.7
6:51 pm CDT NE 6.9 10.00 Overcast -- 61.0 54.0 78% 60 NA 30.26 1024.5
5:51 pm CDT N 4.6 10.00 Overcast -- 61.0 55.9 84% 61 NA 30.26 1024.3
4:51 pm CDT NE 6.9 10.00 Overcast Trace 61.0 55.0 81% 60 NA 30.27 1024.8
3:51 pm CDT NE 8.1 10.00 Light Rain Trace 59.0 55.0 87% 58 NA 30.28 1025.1
2:51 pm CDT NE 8.1 10.00 Overcast Trace 61.0 54.0 78% 60 NA 30.30 1025.6
1:51 pm CDT NE 9.2 10.00 Overcast Trace 60.0 54.0 80% 59 NA 30.33 1026.6
12:51 pm CDT NE 6.9 10.00 Overcast -- 63.0 54.0 73% 63 NA 30.34 1027.1
11:51 am CDT NE 6.9 10.00 Overcast -- 61.0 53.1 75% 60 NA 30.35 1027.5
10:51 am CDT N 9.2 10.00 Overcast Trace 59.0 53.1 81% 57 NA 30.36 1027.8
9:51 am CDT N 8.1 10.00 Overcast -- 58.0 52.0 81% 56 NA 30.37 1028.0
8:51 am CDT N 9.2 10.00 Overcast -- 57.0 52.0 83% 55 NA 30.34 1027.2
7:51 am CDT N 8.1 10.00 Overcast -- 55.0 52.0 90% 53 NA 30.33 1026.9
6:51 am CDT N 5.8 10.00 Overcast -- 55.0 51.1 87% 54 NA 30.34 1027.0
5:51 am CDT N 9.2 10.00 Overcast -- 54.0 51.1 90% 51 NA 30.32 1026.6
4:51 am CDT N 8.1 10.00 Overcast -- 53.0 50.0 89% 50 NA 30.32 1026.7
3:51 am CDT N 9.2 10.00 Overcast -- 52.0 50.0 93% 49 NA 30.32 1026.7
2:51 am CDT N 9.2 10.00 Overcast 00.01 51.0 48.0 89% 48 NA 30.34 1027.2

Regional Weather Observation


Waco-James Connally Airport, TX (KCNW)

Rain
59.0 F

Waco, Mc Gregor Executive Airport, TX (KPWG)

Overcast
59.0 F

Gatesville, City-County Airport, TX (KGOP)

Light Drizzle
57.0 F

Hillsboro, Hillsboro Municipal Airport, TX (KINJ)

Rain
58.0 F

Temple, Draughon-Miller Central Texas Regional Airport, TX (KTPL)

Overcast
59.0 F

Fort Hood, Hood AAF Ft Hood, TX (KHLR)

Overcast
57.0 F

Advertise Here